Location: Chuathbaluk
(61.5726°N, 159.2454°W)
Time: 15:14:14
(UTC+00:00)

ITAMSAT 1 - Pass Details

Date: 26 January 2021
Orbit: 784 x 796 km, 98.9° (Epoch: 01 March)

Event Time Altitude Azimuth Distance (km) Brightness Sun altitude
Rises 15:41:08 0° 23° (NNE) 3,291 11.3 -24.4°
Reaches altitude 10° 15:44:33 10° 47° (NE) 2,358 10.8 -24.0°
Maximum altitude 15:47:28 15° 81° (E) 2,027 10.7 -23.6°
Drops below altitude 10° 15:50:23 10° 116° (ESE) 2,352 10.9 -23.3°
Sets 15:53:46 0° 139° (SE) 3,277 11.4 -22.9°
